AirNav   Air Wisconsin pilot careers
 
 1319 users online  

T45 Panhandle-Carson County Airport
Panhandle, Texas, USA

GOING TO PANHANDLE?


FAA INFORMATION EFFECTIVE 08 NOVEMBER 2018

Location

FAA Identifier: T45
Lat/Long: 35-21-42.1000N / 101-21-54.3000W
35-21.701667N / 101-21.905000W
35.3616944 / -101.3650833
(estimated)
Elevation: 3453.7 ft. / 1052.7 m (surveyed)
Variation: 08E (1995)
From city: 1 mile NE of PANHANDLE, TX
Time zone: UTC -6 (UTC -5 during Daylight Saving Time)
Zip code: 79068

Airport Operations

Airport use: Open to the public
Activation date: 07/1984
Control tower: no
ARTCC: ALBUQUERQUE CENTER
FSS: FORT WORTH FLIGHT SERVICE STATION
NOTAMs facility: FTW (NOTAM-D service available)
Attendance: UNATNDD
Wind indicator: lighted
Segmented circle: yes
Lights: MIRL RY 17/35 PRESET LOW INTST; TO INCR INTST ACTVT - 123.5.
Beacon: white-green (lighted land airport)
Operates sunset to sunrise.

Airport Communications

CTAF/UNICOM: 122.7
AMARILLO APPROACH: 119.5
AMARILLO DEPARTURE: 119.5
WX ASOS at AMA (19 nm SW): 118.85 (806-335-1060)
  • APCH/DEP SERVICE PROVIDED BY ALBUQUERQUE ARTCC ON FREQS 127.85/285.475 (AMARILLO RCAG) WHEN AMARILLO APCH CTL CLSD.

Nearby radio navigation aids

VOR radial/distance  VOR name  Freq  Var
PNHr057/18.0PANHANDLE VORTAC116.6008E
BGDr167/26.7BORGER VORTAC108.6011E

Airport Services

Fuel available: 100LL
Parking: tiedowns

Runway Information

Runway 17/35

Dimensions: 4404 x 60 ft. / 1342 x 18 m
Surface: asphalt, in fair condition
Weight bearing capacity: 
Single wheel: 12.5
Runway edge lights: medium intensity
RUNWAY 17  RUNWAY 35
Latitude: 35-22.064050N35-21.338197N
Longitude: 101-21.905333W101-21.904068W
Elevation: 3451.0 ft.3451.9 ft.
Traffic pattern: leftright
Runway heading: 172 magnetic, 180 true352 magnetic, 360 true
Markings: nonprecision, in fair conditionnonprecision, in fair condition
Touchdown point: yes, no lightsyes, no lights
Obstructions: 10 ft. road, 395 ft. from runway, 19:1 slope to clear15 ft. road, 200 ft. from runway, 210 ft. left of centerline
+15 FT ROAD AT THLD 210 FT LEFT

Airport Ownership and Management from official FAA records

Ownership: Publicly-owned
Owner: CITY OF PANHANDLE & CARSON CO
P.O. BOX 129
PANHANDLE, TX 79068
Phone 806-537-3517
Manager: TERRY COFFEE
P O BOX 129
PANHANDLE, TX 79068
Phone 806-537-3517
CITY MANAGER.

Airport Operational Statistics

Aircraft based on the field: 6
Single engine airplanes: 6
    
Aircraft operations: avg 34/week *
67% local general aviation
33% transient general aviation
* for 12-month period ending 15 November 2017

Instrument Procedures

NOTE: All procedures below are presented as PDF files. If you need a reader for these files, you should download the free Adobe Reader.

NOT FOR NAVIGATION. Please procure official charts for flight.
FAA instrument procedures published for use from 8 November 2018 at 0901Z to 6 December 2018 at 0900Z.

 
IAPs - Instrument Approach Procedures
RNAV (GPS) RWY 17   download (174KB)
RNAV (GPS) RWY 35   download (154KB)
VOR-A   download (168KB)
NOTE: Special Take-Off Minimums/Departure Procedures apply   download (113KB)

Other nearby airports with instrument procedures:

KAMA - Rick Husband Amarillo International Airport (19 nm SW)
KBGD - Hutchinson County Airport (20 nm N)
KPPA - Perry Lefors Field Airport (23 nm NE)
KTDW - Tradewind Airport (25 nm SW)
KDUX - Moore County Airport (43 nm NW)
 
Loc | Ops | Rwys | IFR | FBO | Links
Com | Nav | Svcs | Stats | Notes


 
Area around T45 (Panhandle-Carson County Airport)
 
Road maps at: MapQuest Bing Google
 
Aerial photo
WARNING: Photo may not be current or correct
Aerial photo of T45 (Panhandle-Carson County Airport)
Do you have a better or more recent aerial photo of Panhandle-Carson County Airport that you would like to share? If so, please send us your photo.

 
Sectional chart

 
Airport distance calculator
Flying to Panhandle-Carson County Airport? Find the distance to fly.

From to T45

Sunrise and sunset
Times for 20-Nov-2018
 Local
(UTC-6)
 Zulu
(UTC)
Morning civil twilight06:5912:59
Sunrise07:2713:27
Sunset17:3623:36
Evening civil twilight18:0300:03

Current date and time
Zulu (UTC)  20-Nov-2018 22:02:36
Local (UTC-6)  20-Nov-2018 16:02:36
 
METAR
KAMA 
19nm SW 
202153Z 20012KT 10SM CLR 12/M06 A3022 RMK AO2 SLP229 T01221056
KBGD 
20nm N 
202151Z AUTO 21013G19KT 10SM CLR 14/M05 A3022 RMK AO2 SLP232 T01391050
KPPA 
22nm NE 
202155Z AUTO 19014KT 10SM CLR 13/M04 A3024 RMK AO2 T01331040
KBPC 
36nm NE 
202155Z AUTO 21012G17KT 10SM CLR 13/M04 A3023 RMK AO2
TAF
KAMA 
19nm SW 
202025Z 2020/2118 20014KT P6SM BKN250 FM210000 17010KT P6SM BKN250 FM210800 20012KT P6SM BKN250
NOTAMs
Click for the latest NOTAMs
NOTAMs are issued by the DoD/FAA and will open in a separate window not controlled by AirNav.

 

 
 

FBO, Fuel Providers, and Aircraft Ground Support

  
 Business Name 
 
 Contact 
 
 Services / Description 
 
Fuel Prices
 
Comments
  
Panhandle/Carson County Airport 806-537-3517
no information available

If you are affiliated with Panhandle/Carson County Airport and would like to show here your services, contact info, web link, logo, and more, click here
100LL
PS $4.58 
 Updated 19-Nov-2018
 
   write
PS=Pump service
Update Fuel Prices
 

Would you like to see your business listed on this page?

 If your business provides an interesting product or service to pilots, flight crews, aircraft, or users of the Panhandle-Carson County Airport, you should consider listing it here.  To start the listing process, click on the button below
 
Add a business
 

Other Pages about Panhandle-Carson County Airport

Update a link
 
Copyright © AirNav, LLC. All rights reserved. Privacy Policy  Contact